This demonstration page uses our WeatherBlox Daily Observations layout. Learn more.

36.17497, -115.13722

Hourly Observations for June 9, 2016

Temp ( °F °C ) Dew Point ( °F °C ) Humidity (%) Winds ( mph kmh ) Pressure ( in mb ) Visibility ( mi km ) Precip ( " mm )
12:53 am 00:53 Clear 91 32.8 38 3.3 15 15 VRB 7 11 29.68 1005 10 16.0934 0 0
1:53 am 01:53 Clear 88 31.1 38 3.3 17 17 ESE 5 7 29.67 1005 10 16.0934 0 0
2:53 am 02:53 Clear 88 31.1 39 3.9 18 18 SE 9 15 29.68 1005 10 16.0934 0 0
3:53 am 03:53 Clear 89 31.7 39 3.9 17 17 undefined N/A 29.69 1006 10 16.0934 0 0
4:53 am 04:53 Clear 85 29.4 39 3.9 20 20 E 7 11 29.72 1006 10 16.0934 0 0
5:53 am 05:53 Sunny 86 30 34 1.1 15 15 SSE 8 13 29.73 1007 10 16.0934 0 0
6:53 am 06:53 Sunny 87 30.6 36 2.2 16 16 SE 13 20 29.75 1007 10 16.0934 0 0
7:53 am 07:53 Sunny 92 33.3 35 1.7 13 13 SSE 13 20 29.77 1008 10 16.0934 0 0
8:53 am 08:53 Sunny 95 35 40 4.4 15 15 S 17 28 29.77 1008 10 16.0934 0 0
9:53 am 09:53 Sunny 97 36.1 41 5 14 14 S 18 30 29.77 1008 10 16.0934 0 0
10:53 am 10:53 Sunny 99 37.2 41 5 14 14 SSE 20 31 29.77 1008 10 16.0934 0 0
11:53 am 11:53 Sunny 103 39.4 36 2.2 10 10 SW 17 28 29.75 1007 10 16.0934 0 0
12:53 pm 12:53 Sunny 101 38.3 34 1.1 10 10 SW 14 22 29.74 1007 10 16.0934 0 0
1:53 pm 13:53 Sunny 103 39.4 34 1.1 9 9 SW 18 30 29.71 1006 10 16.0934 0 0
2:53 pm 14:53 Sunny 104 40 30 -1.1 7 7 SW 14 22 29.69 1005 10 16.0934 0 0
3:53 pm 15:53 Sunny 103 39.4 27 -2.8 7 7 SW 18 30 29.68 1005 10 16.0934 0 0
4:53 pm 16:53 Sunny 103 39.4 26 -3.3 6 6 SW 14 22 29.67 1005 10 16.0934 0 0
5:53 pm 17:53 Sunny 102 38.9 26 -3.3 7 7 WSW 10 17 29.66 1004 10 16.0934 0 0
6:53 pm 18:53 Sunny 101 38.3 24 -4.4 6 6 SW 10 17 29.67 1005 10 16.0934 0 0
7:53 pm 19:53 Sunny 99 37.2 24 -4.4 7 7 SSW 10 17 29.67 1005 10 16.0934 0 0
8:53 pm 20:53 Clear 96 35.6 30 -1.1 10 10 S 10 17 29.69 1005 10 16.0934 0 0
9:53 pm 21:53 Clear 92 33.3 33 0.6 12 12 SSE 12 19 29.71 1006 10 16.0934 0 0
10:53 pm 22:53 Clear 92 33.3 33 0.6 12 12 S 10 17 29.71 1006 10 16.0934 0 0
11:53 pm 23:53 Clear 90 32.2 36 2.2 15 15 S 14 22 29.72 1006 10 16.0934 0 0

Powered by AerisWeather